Presure
229 313 283 273 230 244 228 122 129 215 210 209 213 202 205 197 205 203 202 193 193 191 205 203 196 156 200 204 152 183 271 264 260 266 249 256 267 276 225 222 247 77 185 163 113 169 102
218 230 311 242 285 251 235 226 220 225 224 221 220 222 220 205 209 195 210 189 174 209 197 202 191 151 169 155 221 225 269 257 252 243 254 253 254 261 269 224 228 248 206 204 204 112 101
207 215 221 255 272 271 249 219 138 217 223 224 223 223 210 221 206 174 207 193 174 205 195 206 189 191 202 217 218 221 269 248 255 245 251 239 242 248 253 267 212 229 244 205 205 189 106
210 203 212 212 214 277 289 252 223 221 222 213 204 214 222 220 211 194 211 198 214 190 197 204 200 184 200 212 215 241 253 239 235 230 235 230 236 237 246 257 265 216 241 216 205 123 198
226 213 202 208 209 203 214 242 254 230 228 221 148 220 212 212 211 217 195 218 208 218 217 205 197 194 208 204 215 241 241 237 237 237 235 234 239 243 249 209 257 270 210 247 90 150 199
222 218 211 190 215 203 206 208 207 241 240 226 226 219 223 223 214 194 197 203 207 220 222 211 189 204 204 210 237 239 234 230 228 230 233 235 240 241 248 250 182 266 289 213 227 199 97
226 233 177 222 203 215 205 198 215 215 216 278 236 228 234 228 227 208 194 211 213 198 215 206 198 203 208 227 246 236 229 230 228 231 228 231 243 244 241 250 258 284 98 273 244 208 200
216 205 232 196 214 198 205 200 196 213 212 226 291 265 239 166 231 218 220 201 209 205 212 198 200 203 218 248 241 234 243 231 225 226 231 243 249 249 264 262 273 297 298 314 232 244 203
249 222 233 239 230 215 194 215 207 199 217 232 251 294 268 231 233 231 231 209 221 215 205 198 200 214 240 253 234 233 225 223 229 245 254 279 339 209 326 316 262 314 312 333 213 241 147
230 218 224 231 235 231 233 225 202 223 229 147 258 280 265 264 228 241 219 218 217 211 208 195 207 221 253 242 228 222 233 252 262 276 336 350 192 299 332 319 305 310 321 315 223 244 218
229 230 246 233 236 247 249 236 238 242 236 239 272 286 272 260 233 236 214 220 205 199 204 208 222 254 251 216 231 241 259 274 337 343 351 379 359 341 103 331 327 331 92 284 215 240 217
258 267 267 261 256 288 270 253 210 252 250 257 273 274 274 264 247 224 222 217 209 208 200 219 247 257 221 231 242 260 289 334 359 350 364 353 354 358 379 187 360 362 287 267 213 238 217
500 464 522 506 385 325 328 302 196 275 278 273 274 275 268 194 236 222 222 206 204 202 217 236 250 223 231 248 265 326 390 378 349 346 391 389 390 365 374 376 483 338 274 259 239 240 206
541 526 519 490 440 368 363 317 325 291 227 279 277 295 273 275 225 227 207 203 207 209 226 252 216 225 239 269 465 404 358 348 369 408 371 79 248 353 377 368 301 272 132 227 98 178 231
562 513 502 521 384 369 353 380 323 309 284 277 274 287 275 237 228 223 200 211 203 217 247 207 225 233 270 394 391 368 359 417 368 366 362 353 361 362 322 271 277 279 234 209 203 204 189
482 517 474 478 373 334 355 343 332 313 291 276 289 275 267 231 229 204 207 200 210 233 210 221 229 258 378 376 363 366 396 332 339 341 342 345 318 271 285 268 254 241 156 196 169 214 140
481 460 493 513 366 341 320 325 327 299 283 275 289 276 236 232 212 205 207 210 222 250 215 208 220 273 393 178 387 382 336 334 165 238 283 273 264 267 262 257 218 244 198 193 199 194 191
497 479 389 352 336 334 331 331 145 324 281 284 287 241 230 219 206 210 200 212 241 214 217 205 248 280 347 391 362 334 340 274 267 110 268 264 263 255 245 235 228 80 195 233 209 191 189
415 502 350 326 335 328 322 314 344 298 279 289 266 198 225 212 210 199 214 222 247 224 200 207 248 271 325 294 307 290 268 264 264 223 260 84 266 201 191 206 186 232 243 214 199 184 185
437 422 339 333 325 332 331 298 307 286 277 290 250 232 219 207 185 206 210 237 221 217 203 222 236 259 305 287 288 269 263 259 257 196 171 206 261 234 213 200 198 259 229 209 201 186 167
402 358 345 337 317 329 329 313 293 284 288 292 190 226 211 210 204 211 213 242 225 217 208 204 227 247 303 287 278 278 256 262 237 253 250 248 92 113 195 199 250 213 121 171 154 186 183
436 382 337 321 298 326 321 304 295 289 289 291 231 220 214 205 208 212 222 245 233 220 210 203 219 231 245 279 284 280 269 178 259 255 247 195 231 193 184 203 231 217 205 196 178 177 185
421 339 325 316 322 330 301 194 292 293 240 242 226 208 217 208 214 215 238 233 230 218 210 200 221 216 222 231 251 267 270 221 206 251 244 238 221 235 260 228 212 186 145 151 153 184 173
368 345 315 348 325 317 288 282 301 283 250 236 222 213 209 216 214 214 243 228 209 231 210 207 206 220 216 207 222 201 192 191 200 205 219 201 246 264 250 217 183 204 188 194 189 182 181
345 339 336 333 344 207 270 298 297 254 246 230 223 219 210 215 217 217 235 231 214 225 209 208 211 209 211 219 207 205 208 210 208 204 231 244 247 240 201 204 200 205 193 187 185 188 184
365 349 327 328 310 296 300 301 291 243 243 227 224 216 209 204 177 222 233 230 230 222 229 210 203 203 209 211 212 241 214 207 200 191 228 238 243 242 218 196 203 202 194 192 187 191 185
352 339 331 338 308 306 140 289 255 246 232 215 222 211 212 206 213 219 235 222 227 225 232 212 204 199 200 221 231 237 214 214 210 200 208 246 249 249 218 190 201 200 191 185 189 189 185
343 341 328 338 308 166 124 171 253 247 230 225 209 213 212 208 220 222 234 233 234 224 226 211 209 204 211 212 198 222 241 300 165 204 201 208 233 275 263 255 210 202 194 193 189 188 186
348 342 317 339 285 295 279 129 253 241 239 228 218 217 211 212 221 214 265 230 226 225 229 230 207 204 194 198 211 221 230 236 273 278 300 265 204 211 294 310 330 211 191 191 196 192 191
Wind_Speed
26 45 57 70 54 76 83 38 38 82 79 75 74 66 65 60 61 59 59 59 62 55 53 53 57 47 58 59 54 54 49 56 56 51 59 54 54 53 81 80 79 20 79 67 48 68 38
25 22 51 42 70 69 77 83 84 79 84 85 81 77 71 62 63 64 63 61 54 58 54 54 58 51 56 59 64 61 50 54 59 58 53 53 53 55 55 84 83 81 86 84 85 39 52
32 27 23 31 48 58 75 56 43 64 73 74 73 69 64 68 62 56 63 61 57 60 58 57 59 56 60 65 63 65 47 53 55 54 50 58 59 62 67 63 83 85 86 88 85 71 30
36 37 31 32 31 51 69 73 64 62 67 66 62 64 65 63 62 66 62 59 62 60 61 59 56 58 62 67 66 59 45 49 54 58 61 64 67 70 70 69 69 90 90 88 86 61 71
37 38 43 38 38 42 37 48 70 74 78 72 47 71 67 66 61 62 67 62 61 60 64 59 56 60 61 70 69 55 50 54 57 59 63 66 68 72 74 72 76 74 82 84 46 63 71
40 41 41 53 41 46 43 43 45 60 73 74 81 71 79 79 71 70 66 60 62 61 64 57 58 60 63 71 64 56 55 55 57 60 63 67 71 71 73 76 48 70 69 85 92 77 51
40 46 41 45 50 46 50 54 47 49 50 74 81 76 84 80 78 70 69 60 62 59 60 56 56 63 65 70 60 59 58 58 59 62 68 73 77 71 73 76 73 77 29 72 89 90 77
44 46 51 53 46 53 48 59 60 51 53 57 80 83 80 48 76 68 68 65 58 57 53 52 61 64 70 64 61 63 64 61 66 69 76 79 76 75 82 80 79 77 78 63 90 89 80
58 54 59 62 58 63 65 55 56 61 59 60 62 74 80 70 72 70 62 64 57 56 44 46 62 66 73 62 62 64 64 68 72 75 80 84 59 49 69 68 58 72 76 62 84 89 57
62 62 62 68 69 66 63 60 52 60 61 38 62 67 69 74 64 64 58 60 55 50 37 48 60 69 68 62 58 66 71 78 76 78 74 73 32 60 72 75 77 74 67 53 84 83 86
72 72 83 76 76 84 85 70 69 70 64 65 64 64 69 69 62 52 57 55 53 45 39 47 59 66 63 61 65 72 77 81 75 67 68 53 57 65 24 74 81 76 29 63 93 88 89
85 87 89 90 93 90 93 84 70 75 71 67 64 63 63 68 56 50 51 50 47 43 43 52 65 59 55 63 71 77 82 60 58 57 46 48 55 60 62 44 77 65 84 85 85 86 87
55 59 53 56 65 75 77 79 56 78 67 64 64 60 63 42 47 48 44 44 39 41 49 57 57 51 56 68 74 71 46 38 43 44 34 28 34 30 39 46 55 77 91 88 81 87 82
41 44 49 49 51 60 64 70 75 73 50 63 63 57 59 58 48 40 42 38 34 37 50 55 44 49 61 71 28 20 32 33 33 17 18 8 29 42 45 46 85 87 26 86 26 57 73
27 39 40 42 42 52 55 56 68 69 63 62 60 54 56 45 43 37 39 32 29 39 48 36 42 51 66 41 24 21 16 16 30 26 26 37 44 48 85 89 84 72 86 77 76 80 71
33 28 33 47 50 54 50 54 57 68 61 60 53 54 52 45 36 38 33 25 27 39 31 31 40 56 41 21 11 8 20 43 41 42 48 52 73 84 91 92 92 91 55 68 58 80 41
28 28 32 45 49 49 53 55 57 57 60 58 53 51 47 39 40 36 24 20 29 32 24 22 30 51 16 12 7 34 48 45 10 59 82 82 81 76 79 85 70 82 59 53 73 65 66
19 24 41 45 46 48 47 48 28 58 61 56 52 51 42 41 38 28 20 16 27 22 16 15 35 43 14 11 46 45 44 80 81 30 77 76 80 87 87 86 81 14 49 82 69 60 55
23 29 55 51 52 50 51 49 46 57 56 55 51 36 43 40 35 25 18 19 21 14 12 8 26 32 39 48 55 77 81 80 80 56 71 14 66 54 46 65 40 77 82 76 66 53 45
34 45 53 55 47 51 49 51 52 56 53 54 50 48 45 40 23 20 15 18 22 14 10 5 14 21 39 49 60 76 76 76 79 50 35 59 62 87 60 48 42 76 79 64 61 52 38
42 48 60 54 47 44 48 54 58 56 54 52 37 50 44 37 28 19 15 17 19 16 12 7 3 12 24 37 54 50 65 74 64 76 79 78 16 22 31 49 74 69 25 41 41 45 40
47 55 57 49 46 49 55 59 59 57 54 55 55 50 44 34 26 20 15 17 15 20 17 12 8 8 7 16 32 52 50 20 71 74 74 33 55 39 33 34 73 63 54 49 33 31 37
51 62 51 51 52 55 63 32 58 56 56 60 57 45 41 33 26 22 18 22 19 23 21 18 14 15 16 12 18 27 30 25 21 56 54 48 32 54 52 56 42 26 25 38 29 42 38
62 62 44 60 56 63 61 58 62 59 67 64 56 45 39 34 28 23 22 27 31 22 24 22 20 21 20 21 28 34 32 31 26 25 30 36 45 53 58 53 30 49 42 50 48 40 42
47 58 56 56 62 36 59 66 59 65 65 64 55 49 40 35 29 24 24 26 32 29 28 25 24 22 22 24 23 25 26 28 29 26 33 39 44 50 34 46 45 48 41 40 41 45 42
53 61 58 60 66 67 66 61 69 69 67 61 54 46 40 33 22 24 28 22 22 27 25 31 28 26 24 24 24 24 29 32 31 34 33 36 40 48 56 41 50 48 44 44 44 48 49
58 58 59 68 65 68 18 67 72 69 66 53 54 44 41 34 31 25 31 32 29 30 24 34 32 29 27 23 23 22 27 29 29 30 30 36 40 45 55 37 50 50 42 41 48 49 48
53 59 56 62 67 25 20 28 71 71 67 61 47 47 42 36 33 30 31 33 29 34 30 37 34 33 30 28 28 25 21 16 16 33 33 30 31 33 42 45 58 50 47 49 48 47 48
62 63 54 62 60 69 66 20 72 70 71 64 55 50 43 38 36 32 36 31 32 31 31 29 38 37 32 32 30 28 24 22 16 15 14 21 36 37 21 23 23 57 46 48 54 53 53
Wind_Direction
309 250 241 239 249 248 252 272 267 253 258 259 263 259 261 260 266 266 266 262 267 267 269 270 270 263 277 280 257 267 266 260 259 253 246 253 256 254 235 234 232 235 234 232 231 232 241
288 300 249 261 245 246 247 250 255 260 260 262 262 264 265 260 262 263 270 261 263 271 268 271 270 268 270 263 282 283 263 255 254 255 257 256 255 257 253 232 232 229 231 231 233 233 237
274 278 282 281 261 251 248 253 268 252 256 260 261 263 256 265 260 266 268 260 266 269 269 272 271 275 284 283 286 286 255 256 253 253 259 251 248 252 248 251 231 229 226 230 231 231 229
270 269 269 270 272 259 250 249 255 259 259 257 257 259 263 260 256 254 266 260 272 268 272 274 278 276 285 287 287 285 263 255 254 251 248 245 249 248 250 249 250 227 227 228 230 232 231
270 267 267 264 264 266 270 261 251 255 258 260 265 261 258 258 256 260 258 268 269 275 276 275 279 282 287 285 289 286 271 265 262 260 258 256 258 257 256 241 247 244 225 223 231 231 228
267 269 267 275 264 261 262 263 264 257 255 257 258 261 262 262 258 256 259 258 265 277 276 275 279 284 286 287 291 280 274 274 273 271 268 264 261 258 255 254 259 255 256 222 223 226 241
276 271 272 266 262 264 259 262 267 268 270 259 254 257 255 258 260 254 259 259 266 264 272 280 283 285 286 290 284 279 273 272 270 268 263 260 260 260 256 253 249 248 236 231 216 222 223
281 269 276 262 265 259 267 259 263 266 268 271 259 255 253 261 256 256 258 257 260 267 271 284 285 285 289 288 283 279 279 273 268 266 265 267 265 264 257 252 247 239 238 231 216 213 221
277 286 289 281 276 268 271 258 255 261 266 270 270 255 253 251 253 257 258 259 264 266 274 282 283 289 291 287 280 279 274 272 271 274 272 270 265 244 241 235 234 228 230 225 214 212 220
293 284 283 283 279 275 269 261 263 263 270 264 268 254 250 250 251 254 253 259 264 268 277 278 285 291 290 287 282 278 280 280 281 280 273 264 240 240 236 227 226 225 226 204 210 212 216
293 287 280 279 276 274 269 265 267 267 267 270 260 248 244 245 248 246 252 257 264 276 282 283 289 292 290 283 284 286 288 287 288 278 270 257 241 235 220 226 223 218 239 176 207 206 211
284 277 271 268 269 260 261 262 264 264 264 262 252 247 242 243 243 241 249 256 266 278 283 293 294 293 283 289 292 291 293 284 279 277 267 253 243 241 231 220 219 211 170 180 202 202 208
277 266 251 240 250 246 243 247 260 254 251 247 247 241 238 253 234 240 248 258 270 281 292 295 294 289 294 296 297 295 281 271 275 273 263 223 200 187 181 193 203 176 172 182 193 195 206
273 259 248 233 226 236 238 233 234 240 246 238 241 232 234 237 231 235 248 259 274 287 293 296 291 297 300 302 284 265 269 274 274 228 186 289 189 168 169 173 161 168 185 190 213 197 200
279 256 244 222 204 223 231 231 229 229 231 232 234 224 230 215 226 232 249 260 278 292 297 288 299 303 309 311 286 264 263 256 136 136 150 154 153 151 141 160 155 152 180 192 198 197 199
268 253 231 202 196 216 223 220 222 221 220 225 224 219 223 212 219 235 246 264 287 293 278 298 304 316 324 317 282 238 157 137 125 135 140 140 136 152 147 157 164 175 188 194 205 196 211
262 237 214 193 196 204 211 216 217 217 213 218 213 213 207 204 220 233 241 268 286 292 281 296 313 327 339 240 125 140 145 130 181 122 130 141 147 147 157 163 177 172 190 194 194 196 202
237 205 174 180 192 201 204 207 255 208 208 211 205 199 198 200 222 226 240 271 280 256 280 294 330 338 59 116 127 121 120 127 131 190 136 144 149 155 162 172 180 249 188 186 196 198 205
213 195 184 192 198 194 200 198 200 203 206 204 203 213 191 205 214 223 236 267 267 246 250 294 343 349 115 112 113 127 133 137 141 147 139 258 146 174 180 180 183 185 187 191 196 200 200
183 179 192 195 194 194 190 193 193 199 204 201 195 185 194 211 217 209 220 253 220 219 226 315 356 1 136 129 126 139 143 150 156 165 167 167 151 173 180 185 185 183 187 195 199 204 199
188 192 189 191 187 186 186 184 194 198 198 194 211 184 202 204 207 202 218 236 202 201 198 207 46 25 155 149 141 139 158 158 163 163 164 168 222 218 187 189 182 189 215 206 210 208 212
187 188 188 189 195 181 177 187 193 192 192 185 180 186 198 204 198 200 221 214 199 194 185 187 172 102 87 162 165 159 153 193 167 171 173 166 186 181 181 195 186 194 196 200 207 211 223
187 186 193 188 179 177 179 219 189 188 180 178 184 201 189 197 190 196 223 190 190 191 184 188 175 162 148 151 160 162 163 160 161 179 184 191 198 192 192 189 203 182 212 225 221 216 217
185 191 191 188 178 177 190 191 184 181 178 179 189 192 195 188 185 191 207 187 198 194 188 187 184 182 174 164 166 162 179 170 173 180 200 206 204 199 193 198 200 201 204 210 217 224 231
192 192 189 184 178 201 192 188 180 180 179 182 187 187 189 186 185 189 195 179 195 193 190 192 189 192 186 183 183 180 181 189 189 189 209 210 206 203 197 206 209 208 212 217 222 228 238
192 193 189 180 184 189 191 180 178 182 180 185 187 189 192 191 223 193 193 193 179 192 195 189 199 195 197 193 194 200 197 194 193 190 208 212 211 210 207 209 211 215 217 222 226 229 237
193 185 187 183 188 187 237 178 184 182 183 193 190 190 190 190 191 198 193 182 185 192 196 192 199 204 201 198 198 200 205 204 206 203 205 209 211 214 210 209 215 220 221 224 232 234 238
200 191 187 186 186 220 254 203 186 183 186 191 198 193 191 191 190 193 194 198 200 194 193 198 196 204 201 201 206 202 199 163 214 204 205 208 214 213 217 216 221 224 228 232 236 241 244
195 192 187 188 186 187 186 246 188 185 185 187 195 191 193 189 193 195 199 195 193 198 198 196 202 202 206 210 204 203 198 198 155 156 168 199 212 211 210 208 210 227 229 233 237 241 245